Weather in Wangaratta

Australia     36°21′35″S   146°18′40″E
temp.,
°C
wind,
m/s
gust,
m/s
humid.,
%
clouds,
%
prec.,
mm/h
press.,
hPa
HPBL,
m
23 january, sat
sat2323:00+24ssw342269 0.0 100977
02:00+20s343758 0.0 100974
05:00+17sse345229 0.0 100965
08:00+20se23410 0.0 1011135
11:00+32nnw11162 0.0 1011718
14:00+35wnw45110 0.0 10092398
17:00+37w45110 0.0 10072719
20:00+33sw34150 0.0 100859
24 january, sun
sun2423:00+26s12220 0.0 101024
02:00+22sse33290 0.0 100933
05:00+20sse33480 0.0 101041
08:00+23ese22310 0.0 1011134
11:00+34ne22150 0.0 1010781
14:00+38nw441010 0.0 10072856
17:00+39wsw321038 0.0 10043828
20:00+35s2313100 0.0 100529
25 january, mon
mon2523:00+30e2318100 0.0 100726
02:00+26ese232669 0.0 100539
05:00+24ene363441 0.0 1005141
08:00+27ne5103335 0.2 1006402
11:00+36nne591949 0.8 10062011
14:00+39nnw7101454 0.0 10024089
17:00+40n7111361 0.0 9993962
20:00+37n7121583 0.0 998753
26 january, tue
tue2623:00+32nnw482287 0.0 999198
02:00+27wsw91539100 0.0 1001980
05:00+24sw2351100 0.0 1002106
08:00+22nne3673100 0.6 1003683
11:00+23nnw5876100 2.1 1004873
14:00+27nw686283 1.6 10031113
17:00+27nw355982 7.1 10031129
20:00+26sw126547 2.6 1004109
27 january, wed
wed2723:00+22s238425 3.3 100698
02:00+20s35870 0.0 1006151
05:00+18sse47871 0.0 1006216
08:00+18sse458031 0.0 1007154
11:00+27ese235523 0.0 1006708
14:00+32nnw23291 0.0 10042481
17:00+33n232317 0.0 10032957
20:00+30w23260 0.0 100474